Terminal Aerodrome Forecast
Issued by NWS

Home | Current Version | Previous Version | Text Only | Print | Product List | Glossary On
Versions: 1 2 3 4 5 6 7 8 9 10 11 12 13 14 15 16 17 18
000
FTUS44 KMAF 172300
TAFINK
TAF
KINK 172334Z 1800/1824 06009KT P6SM SKC
     FM181000 09009KT P6SM BKN010
     FM181500 13010KT P6SM SCT035=

USA.gov is the U.S. government's official web portal to all federal, state and local government web resources and services.